www.pogodaiklimat.ru

Погода и климат >> Архив погоды >> Индонезия >> Амахаи


ПОГОДА в Амахаи

  • Прогноз погоды в Амахаи
  • Монитор погоды в Амахаи

АРХИВ ПОГОДЫ в Амахаи

Время (UTC), дата Ветер
(напр.,м/с)
 
Видим.   Явления Облачность Т
(С)
Тd
(С)
f
(%)
Тe
(С)
Тes
(С)
Комфортность P
(гПа)
Po
(гПа)
Тmin
(С)
Tmax
(С)
R
(мм)
R24
(мм)
S
(см)
06 17.07 штиль 0 8000 м слаб. дождь 10/8 500 м
[Cu Sc As op]
+25.1 +24.0 94 +35 +35 очень
душно
1008.7 1007.7 1
09 17.07 ЮВ 3 10 км {дождь} 9/5 500 м
[Cu Sc Ac As Ci sp]
+25.6 +23.2 87 +34 +34 очень
душно
1009.1 1008.1 0.1
12 17.07 штиль 0 10 км в посл. час дождь 10/6 500 м
[Cu Sc Ac As]
+24.2 +22.3 89 +31 +31 очень
душно
1011.2 1010.2 +27.0 0.0
15 17.07 штиль 0 9000 м в посл. час дождь 10/6 500 м
[Cu Sc As op]
+24.4 +23.4 94 +33 +33 очень
душно
1011.6 1010.6 0.8
18 17.07 штиль 0 9000 м осадки на расстоянии 10/6 500 м
[Cu Sc Ac As]
+24.2 +23.1 94 +32 +32 очень
душно
1010.7 1009.7 0.8
21 17.07 штиль 0 9000 м осадки на расстоянии 10/6 500 м
[Cu Sc Ac As]
+24.4 +23.4 94 +33 +33 очень
душно
1010.8 1009.8 0.5
00 18.07 Ю 4 7000 м слаб. дождь 10/8 480 м
[Cb cap As op]
+25.0 +23.7 93 +34 +34 очень
душно
1012.1 1011.1 +24.2 1 14
03 18.07 ЮВ 2 11 км {дождь} 8/5 540 м
[Cu Sc Ac As Ci sp]
+26.8 +23.5 82 +36 +43 очень
душно
1011.1 1010.1 1
06 18.07 В 3 11 км {дождь} 9/6 540 м
[Cu Sc Ac As Ci sp]
+26.9 +24.2 85 +37 +40 очень
душно
1009.2 1008.2 1
09 18.07 В 3 11 км 9/6 540 м
[Cu Sc Ac As Ci sp]
+25.9 +23.8 88 +35 +35 очень
душно
1009.5 1008.5
12 18.07 В 2 11 км 8/6 540 м
[Cu Sc Ac trans Ci sp]
+25.3 +23.8 91 +34 +34 очень
душно
1010.8 1009.8 +28.0
15 18.07 Ю 1 11 км 8/5 540 м
[Cu Sc Ac trans Ci sp]
+24.9 +23.3 91 +33 +33 очень
душно
1011.2 1010.2
18 18.07 штиль 0 11 км 9/5 540 м
[Cu Sc Ac As Ci sp]
+24.7 +22.5 88 +32 +32 очень
душно
1010.7 1009.7
21 18.07 штиль 0 11 км 9/5 540 м
[Cu Sc Ac As Ci sp]
+24.1 +23.0 94 +32 +32 очень
душно
1011.0 1010.0
00 19.07 штиль 0 11 км {дождь} 5/3 570 м
[Cu med, cong Ac trans Ci sp]
+27.0 +23.0 79 +36 +42 очень
душно
1012.3 1011.3 +23.6 1
03 19.07 ЮВ 3 11 км 4/3 570 м
[Cu med, cong Ci sp]
+27.7 +23.6 78 +38 +48 очень
душно
1011.8 1010.8
06 19.07 Ю 3 12 км 4/3 600 м
[Cu med, cong Ci sp]
+27.6 +23.5 78 +37 +44 очень
душно
1009.6 1008.6
09 19.07 штиль 0 10 км 9/6 540 м
[Cu Sc Ac As Ci sp]
+26.0 +23.3 85 +35 +35 очень
душно
1010.2 1009.2
12 19.07 В 3 10 км 9/6 540 м
[Cu Sc Ac As Ci sp]
+25.9 +22.6 82 +34 +34 очень
душно
1011.7 1010.7 +28.3
15 19.07 ЮВ 5 10 км 9/6 540 м
[Cu Sc Ac As Ci sp]
+25.9 +23.2 85 +35 +35 очень
душно
1011.9 1010.9
18 19.07 ЮВ 2 10 км 9/6 540 м
[Cu Sc Ac As Ci sp]
+25.3 +22.9 87 +34 +34 очень
душно
1010.9 1009.9
21 19.07 штиль 0 10 км 9/6 540 м
[Cu Sc Ac As Ci sp]
+23.9 +22.9 94 +32 +32 очень
душно
1011.3 1010.3
00 20.07 штиль 0 11 км 9/6 540 м
[Cu Sc Ac trans Ci sp]
+26.6 +23.6 84 +36 +39 очень
душно
1012.9 1011.9 +23.5
03 20.07 ЮВ 3 11 км 9/6 540 м
[Cu Sc Ac As Ci sp]
+27.6 +23.8 80 +38 +42 очень
душно
1012.3 1011.3
06 20.07 штиль 0 11 км 9/6 570 м
[Cu Sc Ac trans Ci sp]
+26.7 +23.0 80 +36 +39 очень
душно
1010.2 1009.2
09 20.07 штиль 0 11 км 5/4 570 м
[Cu Sc Ci sp]
+26.2 +23.3 84 +35 +35 очень
душно
1010.6 1009.6
12 20.07 В 2 10 км в посл. час дождь 9/6 540 м
[Cu Sc Ac As Ci sp]
+24.2 +22.3 89 +31 +31 очень
душно
1011.5 1010.5 +28.0 2
15 20.07 ЮВ 5 10 км 9/6 540 м
[Cu Sc Ac As Ci sp]
+25.0 +22.6 87 +33 +33 очень
душно
1012.0 1011.0
18 20.07 штиль 0 10 км 9/6 540 м
[Cu Sc Ac As Ci sp]
+23.8 +23.1 96 +32 +32 очень
душно
1010.8 1009.8
21 20.07 штиль 0 10 км 9/6 540 м
[Cu Sc Ac As Ci sp]
+23.4 +22.7 96 +33 +33 очень
душно
1010.8 1009.8
00 21.07 штиль 0 9000 м слаб. дождь 10/8 500 м
[Cb cap Ac As]
+24.0 +23.0 94 +32 +32 очень
душно
1011.9 1010.9 +24.0 3 5
03 21.07 ЮВ 2 8000 м слаб. дождь 10/6 540 м
[Cu Sc Ac As]
+26.0 +23.9 88 +36 +38 очень
душно
1010.7 1009.7 3
06 21.07 СВ 4 9000 м в посл. час дождь 10/6 540 м
[Cu Sc Ac As Ci sp]
+25.8 +23.4 87 +35 +37 очень
душно
1008.9 1007.9 2
09 21.07 штиль 0 9000 м осадки на расстоянии 9/6 500 м
[Cb cap Ac As Ci sp]
+24.6 +22.7 89 +32 +32 очень
душно
1009.3 1008.3
12 21.07 В 2 10 км 10/6 540 м
[Cu Sc Ac As Ci sp]
+24.3 +22.2 88 +32 +32 очень
душно
1011.0 1010.0 +26.7
15 21.07 штиль 0 10 км 9/6 540 м
[Cu Sc Ac As Ci sp]
+23.8 +22.7 94 +31 +31 очень
душно
1010.9 1009.7
18 21.07 штиль 0 9000 м осадки на расстоянии 9/6 540 м
[Cu Sc Ac As Ci sp]
+23.6 +22.8 95 +31 +31 очень
душно
1009.8 1008.8
21 21.07 штиль 0 10 км 9/6 540 м
[Cu Sc Ac As Ci sp]
+23.5 +22.9 96 +31 +31 очень
душно
1010.1 1009.1
00 22.07 штиль 0 10 км {дождь} 9/5 540 м
[Cu Sc Ac As Ci sp]
+25.0 +23.5 91 +34 +37 очень
душно
1011.4 1010.4 +23.2 5
03 22.07 Ю 2 9000 м слаб. дождь 10/6 540 м
[Cu Sc Ac As Ci sp]
+24.8 +22.9 89 +33 +37 очень
душно
1010.6 1009.6 0.5
06 22.07 В 2 12 км слаб. дождь 10/6 540 м
[Cu Sc Ac As Ci sp]
+24.8 +23.2 91 +33 +35 очень
душно
1008.5 1007.5 2
09 22.07 штиль 0 9000 м слаб. дождь 10/6 500 м
[Cb cap Ac As]
+23.4 +22.4 94 +32 +32 очень
душно
1009.9 1008.9 0.5
12 22.07 штиль 0 9000 м слаб. дождь 10/5 500 м
[Cu Sc Ac As]
+23.1 +22.4 96 +32 +32 очень
душно
1011.3 1010.3 +25.6 4
15 22.07 штиль 0 10 км слаб. дождь 9/5 500 м
[Cu Sc Ac As Ci sp]
+22.9 +21.6 92 +31 +31 очень
душно
1012.0 1011.0 0.7
18 22.07 штиль 0 11 км {дождь} 9/5 500 м
[Cu Sc Ac trans Ci sp]
+22.7 +21.7 94 +30 +30 очень
душно
1011.2 1010.2 0.0
21 22.07 штиль 0 11 км 9/5 540 м
[Cu Sc Ac As Ci sp]
+22.5 +21.8 96 +30 +30 очень
душно
1011.9 1010.9
00 23.07 штиль 0 11 км {дождь} 9/5 540 м
[Cu Sc Ac As Ci sp]
+24.9 +22.3 85 +32 +35 очень
душно
1012.7 1011.7 +22.4 7
06 23.07 СВ 6 11 км 8/5 540 м
[Cu Sc Ac As Ci sp]
+27.2 +22.4 75 +36 +37 очень
душно
1010.0 1009.0
09 23.07 ЮВ 2 11 км 9/5 570 м
[Cu Sc Ac trans Ci sp]
+25.6 +21.6 79 +33 +33 очень
душно
1010.6 1009.6
12 23.07 штиль 0 11 км осадки на расстоянии 9/5 570 м
[Cu Sc Ac trans Ci sp]
+25.2 +22.2 83 +33 +33 очень
душно
1012.4 1011.4 +25.6
15 23.07 штиль 0 10 км осадки на расстоянии 9/5 540 м
[Cu Sc Ac As Ci sp]
+24.8 +22.6 88 +33 +33 очень
душно
1012.7 1011.7
18 23.07 штиль 0 10 км 9/5 540 м
[Cu Sc Ac As Ci sp]
+24.8 +22.0 84 +32 +32 очень
душно
1011.5 1010.5
21 23.07 В 1 10 км слаб. дождь 9/5 570 м
[Cu Sc Ac As Ci sp]
+24.0 +22.7 92 +31 +31 очень
душно
1011.8 1010.8 0.0
00 24.07 штиль 0 12 км {дождь} 9/6 570 м
[Cu Sc Ac As Ci sp]
+25.3 +22.6 85 +33 +36 очень
душно
1013.5 1012.5 +23.1 0.0
03 24.07 ЮВ 5 10 км 9/6 540 м
[Cu Sc Ac As Ci sp]
+26.7 +23.1 81 +36 +39 очень
душно
1013.2 1012.2

 

Местоположение метеостанции Амахаи (Индонезия): широта -3.35 долгота 128.88 высота над уровнем моря 10 м.

В архиве по умолчанию представлена погода в Амахаи за последнюю неделю. Архивные данные за месяц целиком и за предыдущие месяцы, начиная с января 2011 года, Вы можете получить, выбрав интересующий диапазон дат из раскрывающегося списка и нажав кнопку "Ввод!".


*Определитесь, кто Вы:
робот инопланетянин человек

Внимание! Время в таблицах - всемирное. Для получения местного времени необходимо прибавить поправку, которая равна 9 ч.

Смотрите также архив погоды в соседних городах и на ближайших метеорологических станциях:

Погода в Амбоне (Индонезия) (97 км)
Погода в Неира (Индонезия) (173 км)
Погода в Намлеа (Индонезия) (200 км)
Погода в Гесере (Индонезия) (222 км)
Погода в Лабухе (Индонезия) (339 км)
Погода на Санане (Индонезия) (350 км)
Погода в Аэропорту Соронг-Джефман (Индонезия) (366 км)
Погода в Факфаке (Индонезия) (378 км)
Погода в Тауне (Индонезия) (379 км)
Погода в Тернате (Индонезия) (488 км)

Пояснения к столбцам:

Ветер - указаны скорость ветра в м/с - средняя за 10 мин, порывы в срок и между сроками (в фигурных скобках) и направление, откуда дует ветер: С - северный, СВ - северо-восточный, В - восточный, ЮВ - юго-восточный, Ю - южный, ЮЗ - юго-западный, З - западный, СЗ - северо-западный.
Видимость - горизонтальная дальность видимости в метрах или километрах. При видимости от 1 до 10 км при отсутствии осадков обычно наблюдается дымка, при ухудшении видимости до 1 км и менее - туман. В сухую погоду видимость может ухудшаться дымом, пылью или мглою.
Явления - указаны атмосферные явления, наблюдавшиеся в срок или в последний час перед сроком; фигурными скобками обозначены явления, наблюдавшиеся между сроками (за 1-3 часа до срока); квадратными скобками обозначены град или гололедные отложения с указанием их диаметра в мм.
Облачность - указаны через наклонную черту общая и нижняя облачность в баллах и высота нижней границы облаков в метрах; квадратными скобками обозначены формы облаков: Ci - перистые, Cs - перисто-слоистые, Cc - перисто-кучевые, Ac - высококучевые, As - высокослоистые, Sc - слоисто-кучевые, Ns - слоисто-дождевые, Cu - кучевые, Cb - кучево-дождевые. Подробнее классификацию облаков см. в Атласе облаков (PDF).
T - Температура воздуха - температура, измеренная на высоте 2 м над землей.
Td - Температура точки росы - температура, при понижении до которой содержащийся в воздухе водяной пар достигнет насыщения.
f - Относительная влажность воздуха - влажноcть воздуха, измеренная на высоте 2 м над землей.
Te - Эффективная температура - температура, которую ощущает одетый по сезону человек в тени. Характеристика душности погоды. При расчете учитывается влияние влажности воздуха и скорости ветра на теплоощущения человека.
Tes - Эффективная температура на солнце - температура, которую ощущает человек, с поправкой на солнечный нагрев. Характеристика знойности погоды. Зависит от высоты солнца над горизонтом, облачности и скорости ветра. Ночью, в пасмурную погоду, а также при ветре 12 м/с и более поправка равна нулю.
P - Атмосферное давление - приведенное к уровню моря атмосферное давление.
Po - Атмосферное давление - измеренное на уровне метеостанции атмосферное давление.
Tmin - Минимальная температура - минимум температуры воздуха на высоте 2 м над землей.
Tmax - Максимальная температура - максимум температуры воздуха на высоте 2 м над землей.
R - Количество осадков - Количество выпавших осадков за период времени, мм. При наведении курсора мыши на число - период времени, за который выпало указанное количество осадков.
R24 - Количество осадков - Количество выпавших осадков за 24 часа, мм.
S - Снежный покров - Высота снежного покрова, см. При наведении курсора мыши на число - состояние снежного покрова и степень покрытия местности в баллах.